Weather History for KBEH - October, 2012

Change the Weather History Date:

Friday, October 5, 2012

  Actual Average Record
Temperature  
Mean Temperature 52 °F -  
Max Temperature 57 °F 65 °F 85 °F (1990)
Min Temperature 46 °F 44 °F 25 °F (1993)
Degree Days  
Heating Degree Days 14    
Growing Degree Days 2 (Base 50)    
Moisture  
Dew Point 41 °F    
Average Humidity 69    
Maximum Humidity 83    
Minimum Humidity 50    
Precipitation  
Precipitation 0.00 in - - ()
Sea Level Pressure  
Sea Level Pressure 30.08 in    
Wind  
Wind Speed 11 mph (West)    
Max Wind Speed 15 mph    
Max Gust Speed 24 mph    
Visibility 10 miles    
Events      
Averages and records for this station are not official NWS values.
T = Trace of Precipitation, MM = Missing Value Source: NWS Daily Summary

Daily Weather History Graph

Daily Weather History Graph

Search for Another Location

Airport or City:

Trip Planner

Search our weather history database for the weather conditions in past years. The results will help you decide how hot, cold, wet, or windy it might be!

Date:

Astronomy

Oct. 05, 2012 Rise Set
Actual Time 7:47 AM EDT 7:19 PM EDT
Civil Twilight 7:19 AM EDT 7:47 PM EDT
Nautical Twilight 6:47 AM EDT 8:19 PM EDT
Astronomical Twilight 6:14 AM EDT 8:52 PM EDT
Moon 10:37 PM EDT (10/5) 12:59 PM EDT (10/5)
Length of Visible Light 12h 27m
Length of Day
11h 31m
Waning Gibbous, 74% of the Moon is Illuminated
Oct 5
Waning Gibbous
Oct 8
Last Quarter
Oct 15
New
Oct 21
First Quarter
Oct 29
Full

Hourly Weather History & Observations

Time (EDT) Temp. Windchill Dew Point Humidity Pressure Visibility Wind Dir Wind Speed Gust Speed Precip Events Conditions
12:53 AM 57.9 °F - 46.9 °F 67% 30.08 in 10.0 mi WNW 12.7 mph - N/A   Overcast
1:53 AM 57.0 °F - 45.0 °F 64% 30.08 in 10.0 mi West 13.8 mph 23.0 mph N/A   Overcast
2:53 AM 55.0 °F - 42.1 °F 62% 30.08 in 10.0 mi West 13.8 mph 18.4 mph N/A   Clear
4:53 AM 53.1 °F - 43.0 °F 69% 30.10 in 10.0 mi West 11.5 mph 21.9 mph N/A   Partly Cloudy
5:53 AM 52.0 °F - 43.0 °F 71% 30.10 in 10.0 mi WNW 8.1 mph - N/A   Partly Cloudy
6:53 AM 50.0 °F - 42.1 °F 74% 30.11 in 10.0 mi West 10.4 mph - N/A   Scattered Clouds
7:53 AM 48.9 °F - 41.0 °F 74% 30.11 in 10.0 mi WNW 10.4 mph 16.1 mph N/A   Partly Cloudy
8:22 AM 50.0 °F - 42.8 °F 76% 30.10 in 10.0 mi West 9.2 mph - N/A   Mostly Cloudy
8:53 AM 48.9 °F - 41.0 °F 74% 30.12 in 10.0 mi West 11.5 mph - N/A   Mostly Cloudy
9:49 AM 50.0 °F - 41.0 °F 71% 30.11 in 10.0 mi West 9.2 mph - N/A   Scattered Clouds
9:53 AM 50.0 °F - 41.0 °F 71% 30.12 in 10.0 mi WNW 10.4 mph - N/A   Scattered Clouds
10:39 AM 50.0 °F - 41.0 °F 71% 30.12 in 10.0 mi West 10.4 mph - N/A   Mostly Cloudy
10:53 AM 50.0 °F - 41.0 °F 71% 30.13 in 10.0 mi WNW 11.5 mph - N/A   Mostly Cloudy
11:53 AM 50.0 °F - 41.0 °F 71% 30.12 in 10.0 mi West 12.7 mph - N/A   Mostly Cloudy
12:04 PM 51.8 °F - 41.0 °F 67% 30.11 in 10.0 mi West 9.2 mph - N/A   Scattered Clouds
12:53 PM 50.0 °F - 41.0 °F 71% 30.12 in 10.0 mi West 12.7 mph - N/A   Mostly Cloudy
1:53 PM 50.0 °F - 39.9 °F 68% 30.11 in 10.0 mi West 12.7 mph - N/A   Overcast
2:53 PM 50.0 °F - 39.9 °F 68% 30.07 in 10.0 mi WSW 8.1 mph - 0.00 in   Overcast
3:53 PM 50.0 °F - 39.0 °F 66% 30.05 in 10.0 mi SW 11.5 mph - N/A   Overcast
4:53 PM 48.9 °F - 41.0 °F 74% 30.05 in 10.0 mi WSW 10.4 mph - N/A   Overcast
5:41 PM 48.2 °F - 41.0 °F 76% 30.04 in 10.0 mi WSW 12.7 mph - 0.00 in   Overcast
5:53 PM 48.9 °F - 41.0 °F 74% 30.05 in 10.0 mi WSW 9.2 mph 19.6 mph 0.00 in   Overcast
6:08 PM 48.2 °F - 41.0 °F 76% 30.03 in 10.0 mi SW 9.2 mph - N/A   Overcast
6:53 PM 48.9 °F - 41.0 °F 74% 30.05 in 10.0 mi West 12.7 mph - N/A   Overcast
7:53 PM 50.0 °F - 37.0 °F 61% 30.03 in 10.0 mi WSW 10.4 mph - N/A   Overcast
8:53 PM 46.0 °F 43.9 °F 41.0 °F 83% 30.04 in 10.0 mi Variable 4.6 mph - N/A   Overcast
9:53 PM 50.0 °F - 32.0 °F 50% 30.02 in 10.0 mi WNW 12.7 mph 24.2 mph N/A   Mostly Cloudy
10:53 PM 48.9 °F - 33.1 °F 54% 30.03 in 10.0 mi WNW 15.0 mph 21.9 mph N/A   Overcast
11:53 PM 48.9 °F - 34.0 °F 56% 30.03 in 10.0 mi WNW 13.8 mph 21.9 mph N/A   Overcast